sat.trackr.live / text

‹ back to catalog

STARLINK-1784

NORAD 46687 · 2020-073T

PAYLOAD ACTIVE UNKNOWN

§ Identity

Operator
Country
US
Launch date
2020-10-18
Launch site
AFETR
Launch vehicle
Mass (kg)
RCS (m²)

Purposes: comms

External: N2YO · Heavens-Above · Gunter

§ Orbital elements

Epoch: 2026-05-25T02:01:18.390432Z

Period
91.25 min
Inclination
53.0376°
Eccentricity
0.0004429
Mean motion
15.78087538 rev/d
Perigee alt
332.9 km
Apogee alt
338.8 km
Semi-major
6,714.0 km
B*
7.1189e-4
RAAN
168.8868°
Arg perigee
33.4808°
Mean anomaly
326.6491°
Rev number
30,990

§ Raw data

STARLINK-17841 46687U 20073T   26145.08424063  .00125012  00000+0  71189-3 0  99972 46687  53.0376 168.8868 0004429  33.4808 326.6491 15.78087538309901

JSON: /api/v1/satellites/46687 · /tle

For live sub-satellite position, see the globe view (requires WebGL).

§ Visibility from observer

Set your observer location to see the next 7 days of passes ≥ 10°. The values pass through the URL so the page stays shareable.

No JS? Fill the form by hand. The geolocation button needs JavaScript.